Price, UT

5:25 AM MDT on June 28, 2017 (GMT -0600)
Carbon County

Weather History for KPUC - December, 2013

Change the Weather History Date:

Tuesday, December 10, 2013

  Actual Average Record
Temperature  
Mean Temperature 8 °F -  
Max Temperature 17 °F 34 °F 50 °F (1990)
Min Temperature 0 °F 16 °F -5 °F (1972)
Degree Days  
Heating Degree Days 56    
Moisture  
Dew Point -4 °F    
Average Humidity 60    
Maximum Humidity 69    
Minimum Humidity 45    
Precipitation  
Precipitation 0.00 in - - ()
Sea Level Pressure  
Sea Level Pressure 30.65 in    
Wind  
Wind Speed 5 mph (ENE)    
Max Wind Speed 8 mph    
Max Gust Speed -    
Visibility 10 miles    
Events      
Averages and records for this station are not official NWS values.
T = Trace of Precipitation, MM = Missing Value Source: NWS Daily Summary

Daily Weather History Graph

Daily Weather History Graph

Search for Another Location

Airport or City:

Trip Planner

Search our weather history database for the weather conditions in past years. The results will help you decide how hot, cold, wet, or windy it might be!

Date:

Astronomy

Dec. 10, 2013 Rise Set
Actual Time 7:33 AM MST 4:58 PM MST
Civil Twilight 7:02 AM MST 5:29 PM MST
Nautical Twilight 6:29 AM MST 6:02 PM MST
Astronomical Twilight 5:56 AM MST 6:35 PM MST
Moon 1:01 PM MST (12/10) 12:56 AM MST (12/10)
Length of Visible Light 10h 26m
Length of Day
9h 25m
Waxing Gibbous, 62% of the Moon is Illuminated
Dec 10
Waxing Gibbous
Dec 17
Full
Dec 25
Last Quarter
Jan 1
New
Jan 7
First Quarter

Hourly Weather History & Observations

Time (MST) Temp. Windchill Dew Point Humidity Pressure Visibility Wind Dir Wind Speed Gust Speed Precip Events Conditions
12:53 AM -0.0 °F -13.0 °F -9.0 °F 66% 30.72 in 10.0 mi NNE 6.9 mph - N/A   Clear
1:53 AM 1.0 °F -12.9 °F -8.0 °F 66% 30.71 in 10.0 mi North 8.1 mph - N/A   Clear
2:53 AM -0.0 °F -9.9 °F -9.0 °F 66% 30.71 in 10.0 mi ENE 4.6 mph - N/A   Clear
3:53 AM 1.0 °F -11.7 °F -8.0 °F 66% 30.70 in 10.0 mi North 6.9 mph - N/A   Clear
4:53 AM -0.0 °F -13.0 °F -8.0 °F 69% 30.70 in 10.0 mi NNE 6.9 mph - N/A   Clear
5:53 AM -0.9 °F -14.1 °F -9.0 °F 69% 30.73 in 10.0 mi NNE 6.9 mph - N/A   Clear
6:53 AM -0.9 °F -11.0 °F -9.0 °F 69% 30.71 in 10.0 mi NE 4.6 mph - N/A   Clear
7:53 AM -0.0 °F -11.6 °F -9.0 °F 66% 30.71 in 10.0 mi North 5.8 mph - N/A   Clear
8:53 AM 7.0 °F 0.1 °F -4.0 °F 61% 30.69 in 10.0 mi SE 3.5 mph - N/A   Clear
9:53 AM 10.0 °F - -2.9 °F 56% 30.69 in 10.0 mi Calm Calm - N/A   Clear
10:53 AM 12.0 °F 5.9 °F -2.9 °F 51% 30.68 in 10.0 mi SSE 3.5 mph - N/A   Clear
11:53 AM 14.0 °F 6.5 °F -2.9 °F 47% 30.64 in 10.0 mi SE 4.6 mph - N/A   Clear
12:53 PM 15.1 °F 5.2 °F -0.0 °F 51% 30.60 in 10.0 mi SSE 6.9 mph - N/A   Clear
1:53 PM 16.0 °F 7.4 °F -0.9 °F 47% 30.58 in 10.0 mi SE 5.8 mph - N/A   Clear
2:53 PM 16.0 °F 10.4 °F -0.9 °F 47% 30.57 in 10.0 mi SSE 3.5 mph - N/A   Clear
3:53 PM 17.1 °F 11.7 °F -0.9 °F 45% 30.56 in 10.0 mi SSE 3.5 mph - N/A   Clear
4:53 PM 14.0 °F 8.2 °F -2.0 °F 49% 30.58 in 10.0 mi ESE 3.5 mph - N/A   Clear
5:53 PM 5.0 °F - -6.0 °F 61% 30.62 in 10.0 mi Calm Calm - N/A   Clear
6:53 PM 6.1 °F - -4.0 °F 63% 30.62 in 10.0 mi Calm Calm - N/A   Clear
7:53 PM 6.1 °F -0.9 °F -2.9 °F 67% 30.63 in 10.0 mi North 3.5 mph - N/A   Clear
8:53 PM 9.0 °F 0.6 °F -0.9 °F 64% 30.61 in 10.0 mi NNE 4.6 mph - N/A   Clear
9:53 PM 10.9 °F - -0.0 °F 61% 30.59 in 10.0 mi Calm Calm - N/A   Clear
10:53 PM 10.9 °F - -0.0 °F 61% 30.59 in 10.0 mi Calm Calm - N/A   Clear
11:53 PM 10.9 °F - 1.0 °F 64% 30.59 in 10.0 mi Calm Calm - N/A   Clear